Home > Weather > Iquitos > Past weeks

Flag for Peru Past Weather in Iquitos, Loreto, Peru — Yesterday and Last 2 Weeks

Now
77 °F

Passing clouds.


Feels Like: 78 °F
Forecast: 73 / 87 °F
Wind: No wind

Location: Iquitos Airport

Current Time: May 28, 2016 at 9:03:19 PM

Latest Report: May 28, 2016 at 8:00 PM


Visibility: N/A

Pressure: 29.92 "Hg

Humidity: 89%

Dew Point: 73 °F

Location of IquitosLocation

Past Weather in Iquitos — Graph

°F

Iquitos Temperature Yesterday

Maximum temperature yesterday: 88 °F (at 3:00 PM)
Minimum temperature yesterday: 75 °F (at 12:00 AM)
Average temperature yesterday: 79 °F

High & Low Weather Summary for the Past Weeks

 TemperatureHumidityPressure
High93 °F (May 17, 4:00 PM)100% (May 22, 10:00 AM)30.09 "Hg (May 22, 10:00 AM)
Low70 °F (May 25, 5:00 AM)55% (May 26, 1:00 PM)29.77 "Hg (May 17, 3:00 PM)
Average79 °F86%29.93 "Hg
* Reported May 13 8:00 PM — May 28 8:00 PM, Iquitos, Weather by CustomWeather, © 2016

Note: Actual official high and low records may vary slightly from our data, if they occured in-between our weather recording intervals... More about our weather records

Advertising

Iquitos Weather History for the Previous 24 Hours

Scroll right to see more
 ConditionsComfort  
Time TempWeatherWind HumidityBarometerVisibility
8:00 PM
Sat, May 28
77 °FPassing clouds.No wind89%29.92 "HgN/A
7:00 PM79 °FPassing clouds.3 mph84%29.89 "HgN/A
6:00 PM81 °FScattered showers. Partly cloudy.9 mph84%29.89 "HgN/A
5:00 PM88 °FScattered clouds.5 mph66%29.83 "HgN/A
4:00 PM88 °FScattered clouds.6 mph66%29.83 "HgN/A
3:00 PM88 °FScattered clouds.7 mph66%29.83 "HgN/A
2:00 PM88 °FScattered clouds.9 mph66%29.89 "HgN/A
1:00 PM86 °FPartly sunny.5 mph70%29.95 "HgN/A
12:00 PM84 °FBroken clouds.7 mph74%29.98 "HgN/A
11:00 AM82 °FBroken clouds.6 mph74%29.98 "HgN/A
10:00 AM81 °FBroken clouds.8 mph84%30.01 "HgN/A
9:00 AM79 °FBroken clouds.6 mph84%29.98 "HgN/A
8:00 AM77 °FBroken clouds.3 mph89%29.98 "HgN/A
7:00 AM75 °FPartly sunny.No wind94%29.98 "HgN/A
6:00 AM75 °FBroken clouds.No wind94%29.95 "HgN/A
5:00 AM75 °FPartly cloudy.No wind89%29.92 "HgN/A
4:00 AM73 °FPartly cloudy.5 mph94%29.92 "HgN/A
3:00 AM75 °FPassing clouds.7 mph94%29.92 "HgN/A
2:00 AM75 °FClear.No wind94%29.89 "Hg10 mi
1:00 AM75 °FClear.No wind94%29.89 "Hg10 mi
12:00 AM75 °FClear.No wind94%29.92 "Hg10 mi
11:00 PM
Fri, May 27
75 °FClear.No wind94%29.92 "Hg10 mi
10:00 PM77 °FClear.No wind94%29.92 "Hg10 mi
9:00 PM77 °FPassing clouds.No wind94%29.92 "HgN/A
Weather by CustomWeather, © 2016

See weather overviewHow to use our weather pages